,,PA_Meas_PMT16A,,PR_Meas_QMR101_102,,RH_Meas_QMH101,,SR_Meas_QMS101,,TA_Meas_QMH101,,GenWind,,GenWind,
time,status,PA,status,PR,status,RH,status,SR,status,TA,status,DirAvg,status,SpdAvg,
2014-05-06, 06:55:04,VALID,916.469,VALID,0,VALID,90.1621,VALID,38.8937,VALID,21.8876,VALID,141,VALID,0.993359,
2014-05-06, 06:56:04,VALID,916.453,VALID,0,VALID,90.0325,VALID,49.208,VALID,21.9478,VALID,148,VALID,0.69375,
2014-05-06, 06:57:04,VALID,916.509,VALID,0,VALID,90.0249,VALID,60.0596,VALID,21.964,VALID,146,VALID,1.03359,
2014-05-06, 06:58:04,VALID,916.533,VALID,0,VALID,89.6819,VALID,68.5475,VALID,22.003,VALID,162,VALID,1.13008,
2014-05-06, 06:59:04,VALID,916.551,VALID,0,VALID,89.5675,VALID,72.5228,VALID,22.081,VALID,177,VALID,0.911328,
2014-05-06, 07:00:04,VALID,916.57,VALID,0,VALID,89.3693,VALID,72.093,VALID,22.1201,VALID,135,VALID,0.738281,
2014-05-06, 07:01:04,VALID,916.604,VALID,0,VALID,89.2931,VALID,74.1344,VALID,22.1396,VALID,140,VALID,0.627734,
2014-05-06, 07:02:04,VALID,916.589,VALID,0,VALID,89.4074,VALID,78.1097,VALID,22.1981,VALID,140,VALID,0.191406,
2014-05-06, 07:03:04,VALID,916.602,VALID,0,VALID,89.1025,VALID,79.9362,VALID,22.2176,VALID,140,VALID,0.175,
2014-05-06, 07:04:04,VALID,916.63,VALID,0,VALID,88.5993,VALID,79.1841,VALID,22.2567,VALID,140,VALID,0.169141,
2014-05-06, 07:05:04,VALID,916.593,VALID,0,VALID,88.6908,VALID,78.9692,VALID,22.3169,VALID,140,VALID,0.128125,
2014-05-06, 07:06:04,VALID,916.62,VALID,0,VALID,88.8814,VALID,85.6306,VALID,22.3347,VALID,140,VALID,0.489453,
2014-05-06, 07:07:04,VALID,916.567,VALID,0,VALID,88.3325,VALID,90.0357,VALID,22.3737,VALID,140,VALID,0.722266,
2014-05-06, 07:08:04,VALID,916.58,VALID,0,VALID,87.9437,VALID,83.6967,VALID,22.4128,VALID,140,VALID,0.403125,
2014-05-06, 07:09:04,VALID,916.585,VALID,0,VALID,87.2729,VALID,77.2502,VALID,22.4518,VALID,140,VALID,0.384375,
2014-05-06, 07:10:04,VALID,916.626,VALID,0,VALID,87.5473,VALID,72.4153,VALID,22.5121,VALID,140,VALID,0.18125,
2014-05-06, 07:11:04,VALID,916.617,VALID,0,VALID,88.4392,VALID,68.3326,VALID,22.5706,VALID,140,VALID,0.39375,
2014-05-06, 07:12:04,VALID,916.615,VALID,0,VALID,88.8738,VALID,66.8284,VALID,22.5901,VALID,140,VALID,0.466797,
2014-05-06, 07:13:04,VALID,916.653,VALID,0,VALID,89.072,VALID,69.9442,VALID,22.5706,VALID,140,VALID,0.0644531,
2014-05-06, 07:14:04,VALID,916.629,VALID,0,VALID,88.8738,VALID,76.2832,VALID,22.5706,VALID,140,VALID,0.0484375,
2014-05-06, 07:15:04,VALID,916.634,VALID,0,VALID,87.8065,VALID,86.2752,VALID,22.5706,VALID,172,VALID,0.800391,
2014-05-06, 07:16:04,VALID,916.631,VALID,0,VALID,87.3186,VALID,97.0194,VALID,22.6096,VALID,181,VALID,0.351563,
2014-05-06, 07:17:04,VALID,916.636,VALID,0,VALID,87.6769,VALID,99.8128,VALID,22.6274,VALID,181,VALID,0.624609,
2014-05-06, 07:18:04,VALID,916.657,VALID,0,VALID,87.1966,VALID,95.7301,VALID,22.6487,VALID,142,VALID,0.705078,
2014-05-06, 07:19:04,VALID,916.649,VALID,0,VALID,86.5486,VALID,89.8208,VALID,22.6292,VALID,161,VALID,1.6457,
2014-05-06, 07:20:04,VALID,916.67,VALID,0,VALID,86.7621,VALID,88.1017,VALID,22.6292,VALID,145,VALID,0.882031,
2014-05-06, 07:21:04,VALID,916.704,VALID,0,VALID,86.6859,VALID,87.7794,VALID,22.6079,VALID,154,VALID,0.86875,
2014-05-06, 07:22:04,VALID,916.72,VALID,0,VALID,86.8841,VALID,92.9366,VALID,22.6292,VALID,175,VALID,0.523438,
2014-05-06, 07:23:04,VALID,916.734,VALID,0,VALID,87.372,VALID,96.4822,VALID,22.6682,VALID,175,VALID,0.107813,
2014-05-06, 07:24:04,VALID,916.715,VALID,0,VALID,87.8446,VALID,94.978,VALID,22.7072,VALID,175,VALID,0.214844,
2014-05-06, 07:25:04,VALID,916.731,VALID,0,VALID,87.3339,VALID,91.9696,VALID,22.7463,VALID,175,VALID,0.304297,
2014-05-06, 07:26:04,VALID,916.766,VALID,0,VALID,86.8078,VALID,90.7878,VALID,22.7853,VALID,175,VALID,0.257031,
2014-05-06, 07:27:04,VALID,916.747,VALID,0,VALID,85.8168,VALID,93.4738,VALID,22.7853,VALID,161,VALID,1.38125,
2014-05-06, 07:28:04,VALID,916.82,VALID,0,VALID,86.9832,VALID,95.9449,VALID,22.8439,VALID,146,VALID,0.45625,
2014-05-06, 07:29:04,VALID,916.845,VALID,0,VALID,87.6159,VALID,100.028,VALID,22.8616,VALID,130,VALID,0.78125,
2014-05-06, 07:30:04,VALID,916.875,VALID,0,VALID,85.3746,VALID,106.797,VALID,22.8226,VALID,93,VALID,0.415625,
2014-05-06, 07:31:04,VALID,916.886,VALID,0,VALID,86.0455,VALID,117.433,VALID,22.8634,VALID,145,VALID,0.836719,
2014-05-06, 07:32:04,VALID,916.899,VALID,0,VALID,86.7316,VALID,123.987,VALID,22.8634,VALID,145,VALID,0.583594,
2014-05-06, 07:33:04,VALID,916.874,VALID,0,VALID,86.5563,VALID,125.599,VALID,22.8421,VALID,120,VALID,0.593359,
2014-05-06, 07:34:04,VALID,916.889,VALID,0,VALID,86.7697,VALID,129.037,VALID,22.8812,VALID,120,VALID,0.420703,
2014-05-06, 07:35:04,VALID,916.874,VALID,0,VALID,86.3809,VALID,126.781,VALID,22.8616,VALID,134,VALID,0.708984,
2014-05-06, 07:36:04,VALID,916.91,VALID,0,VALID,86.6782,VALID,131.83,VALID,22.9219,VALID,140,VALID,0.551953,
2014-05-06, 07:37:04,VALID,916.926,VALID,0,VALID,86.3962,VALID,201.237,VALID,22.9397,VALID,96,VALID,0.81875,
2014-05-06, 07:39:04,VALID,916.932,VALID,0,VALID,84.8867,VALID,223.478,VALID,23.0781,VALID,93,VALID,1.85781,
2014-05-06, 07:40:04,VALID,916.966,VALID,0,VALID,85.2908,VALID,244.858,VALID,23.1544,VALID,144,VALID,1.13242,
2014-05-06, 07:41:04,VALID,916.985,VALID,0,VALID,85.1307,VALID,248.619,VALID,23.2733,VALID,69,VALID,0.998828,
2014-05-06, 07:42:04,VALID,917.017,VALID,0,VALID,83.4917,VALID,252.379,VALID,23.2911,VALID,116,VALID,1.45781,
2014-05-06, 07:43:04,VALID,917.077,VALID,0,VALID,83.7432,VALID,263.875,VALID,23.3301,VALID,120,VALID,1.61172,
2014-05-06, 07:44:04,VALID,917.06,VALID,0,VALID,83.6594,VALID,270.107,VALID,23.3904,VALID,123,VALID,1.68359,
2014-05-06, 07:45:04,VALID,917.072,VALID,0,VALID,83.8042,VALID,273.438,VALID,23.3887,VALID,128,VALID,1.86875,
2014-05-06, 07:46:04,VALID,917.071,VALID,0,VALID,82.6607,VALID,272.578,VALID,23.4667,VALID,131,VALID,1.42461,
2014-05-06, 07:47:04,VALID,917.045,VALID,0,VALID,82.9351,VALID,278.81,VALID,23.5839,VALID,173,VALID,1.09766,
2014-05-06, 07:48:04,VALID,917.099,VALID,0,VALID,82.432,VALID,287.513,VALID,23.6424,VALID,157,VALID,2.09258,
2014-05-06, 07:49:04,VALID,917.104,VALID,0,VALID,83.2248,VALID,295.678,VALID,23.6602,VALID,60,VALID,1.00469,
2014-05-06, 07:50:04,VALID,917.155,VALID,0,VALID,83.1257,VALID,299.761,VALID,23.7791,VALID,130,VALID,1.425,
2014-05-06, 07:51:04,VALID,917.179,VALID,0,VALID,81.9975,VALID,303.736,VALID,23.8181,VALID,88,VALID,0.940234,
2014-05-06, 07:52:04,VALID,917.207,VALID,0,VALID,82.5387,VALID,287.19,VALID,23.9548,VALID,51,VALID,1.05469,
2014-05-06, 07:53:04,VALID,917.259,VALID,0,VALID,79.2759,VALID,214.345,VALID,24.0329,VALID,49,VALID,1.73281,
2014-05-06, 07:54:04,VALID,917.237,VALID,0,VALID,80.427,VALID,274.297,VALID,24.111,VALID,89,VALID,1.21484,
2014-05-06, 07:55:04,VALID,917.211,VALID,0,VALID,80.7472,VALID,235.726,VALID,24.1873,VALID,43,VALID,1.20898,
2014-05-06, 07:56:04,VALID,917.257,VALID,0,VALID,78.7041,VALID,227.56,VALID,24.2281,VALID,53,VALID,1.52266,
2014-05-06, 07:57:04,VALID,917.288,VALID,0,VALID,78.6813,VALID,178.675,VALID,24.1677,VALID,67,VALID,2.63477,
2014-05-06, 07:58:04,VALID,917.295,VALID,0,VALID,78.7651,VALID,177.063,VALID,24.0524,VALID,79,VALID,1.75039,
2014-05-06, 07:59:04,VALID,917.331,VALID,0,VALID,80.7701,VALID,173.41,VALID,23.8944,VALID,110,VALID,0.964844,
2014-05-06, 08:00:04,VALID,917.327,VALID,0,VALID,81.5782,VALID,170.079,VALID,23.8749,VALID,93,VALID,1.1457,
2014-05-06, 08:01:04,VALID,917.331,VALID,0,VALID,80.5795,VALID,168.575,VALID,23.7968,VALID,58,VALID,0.890234,
2014-05-06, 08:02:04,VALID,917.373,VALID,0,VALID,80.2212,VALID,171.046,VALID,23.7578,VALID,112,VALID,1.43125,
2014-05-06, 08:03:04,VALID,917.382,VALID,0,VALID,81.2427,VALID,200.163,VALID,23.7578,VALID,87,VALID,0.824609,
2014-05-06, 08:04:04,VALID,917.371,VALID,0,VALID,82.5006,VALID,258.503,VALID,23.7187,VALID,89,VALID,1.13281,
2014-05-06, 08:05:04,VALID,917.399,VALID,0,VALID,80.8235,VALID,334.357,VALID,23.7169,VALID,102,VALID,1.29805,
2014-05-06, 08:06:04,VALID,917.394,VALID,0,VALID,80.4118,VALID,413.648,VALID,23.8163,VALID,52,VALID,1.77422,
2014-05-06, 08:07:04,VALID,917.387,VALID,0,VALID,81.2427,VALID,376.259,VALID,23.953,VALID,42,VALID,1.36484,
2014-05-06, 08:08:04,VALID,917.419,VALID,0,VALID,79.7638,VALID,401.185,VALID,24.1269,VALID,47,VALID,1.45313,
2014-05-06, 08:09:04,VALID,917.44,VALID,0,VALID,78.8642,VALID,287.083,VALID,24.2458,VALID,81,VALID,2.21328,
2014-05-06, 08:10:04,VALID,917.494,VALID,0,VALID,78.3687,VALID,234.974,VALID,24.2281,VALID,119,VALID,0.976953,
2014-05-06, 08:11:04,VALID,917.491,VALID,0,VALID,78.6355,VALID,224.445,VALID,24.2263,VALID,82,VALID,1.44141,
2014-05-06, 08:12:04,VALID,917.498,VALID,0,VALID,79.0396,VALID,309.001,VALID,24.2068,VALID,109,VALID,2.26016,
2014-05-06, 08:13:04,VALID,917.493,VALID,0,VALID,80.2288,VALID,426.756,VALID,24.1464,VALID,32,VALID,1.68008,
2014-05-06, 08:14:04,VALID,917.549,VALID,0,VALID,79.901,VALID,427.616,VALID,24.2263,VALID,13,VALID,1.95859,
2014-05-06, 08:15:04,VALID,917.583,VALID,0,VALID,78.4907,VALID,279.562,VALID,24.3416,VALID,48,VALID,2.10898,
2014-05-06, 08:16:04,VALID,917.581,VALID,0,VALID,78.4754,VALID,264.628,VALID,24.3611,VALID,47,VALID,1.77813,
2014-05-06, 08:17:04,VALID,917.598,VALID,0,VALID,76.8821,VALID,246.04,VALID,24.4002,VALID,62,VALID,2.47422,
2014-05-06, 08:18:04,VALID,917.585,VALID,0,VALID,78.1629,VALID,261.189,VALID,24.3221,VALID,73,VALID,1.51953,
2014-05-06, 08:19:04,VALID,917.632,VALID,0,VALID,79.0548,VALID,258.396,VALID,24.2049,VALID,49,VALID,1.94766,
2014-05-06, 08:20:04,VALID,917.635,VALID,0,VALID,78.5593,VALID,433.847,VALID,24.1659,VALID,52,VALID,2.19023,
2014-05-06, 08:21:04,VALID,917.672,VALID,0,VALID,76.7221,VALID,253.561,VALID,24.1659,VALID,54,VALID,1.80547,
2014-05-06, 08:22:04,VALID,917.664,VALID,0,VALID,78.1095,VALID,460.815,VALID,24.2245,VALID,51,VALID,1.7082,
2014-05-06, 08:23:04,VALID,917.678,VALID,0,VALID,77.6902,VALID,445.558,VALID,24.3416,VALID,65,VALID,1.22187,
2014-05-06, 08:24:04,VALID,917.706,VALID,0,VALID,77.2252,VALID,338.547,VALID,24.4002,VALID,119,VALID,1.1125,
2014-05-06, 08:25:04,VALID,917.703,VALID,0,VALID,78.3535,VALID,355.953,VALID,24.4606,VALID,97,VALID,1.21172,
2014-05-06, 08:26:04,VALID,917.721,VALID,0,VALID,76.8745,VALID,480.907,VALID,24.5973,VALID,99,VALID,1.02188,
2014-05-06, 08:27:04,VALID,917.736,VALID,0,VALID,76.0359,VALID,477.039,VALID,24.654,VALID,122,VALID,0.988281,
2014-05-06, 08:28:04,VALID,917.697,VALID,0,VALID,77.3472,VALID,435.137,VALID,24.7711,VALID,120,VALID,0.95625,
2014-05-06, 08:29:04,VALID,917.723,VALID,0,VALID,76.5543,VALID,302.877,VALID,24.8902,VALID,135,VALID,1.58203,
2014-05-06, 08:30:04,VALID,917.703,VALID,0,VALID,77.675,VALID,268.066,VALID,24.9878,VALID,24,VALID,0.820703,
2014-05-06, 08:31:04,VALID,917.668,VALID,0,VALID,76.8288,VALID,273.438,VALID,25.025,VALID,84,VALID,1.73867,
2014-05-06, 08:32:04,VALID,917.641,VALID,0,VALID,75.8759,VALID,233.47,VALID,24.9078,VALID,77,VALID,1.95664,
2014-05-06, 08:33:04,VALID,917.646,VALID,0,VALID,77.1566,VALID,237.552,VALID,24.8121,VALID,58,VALID,1.43594,
2014-05-06, 08:34:04,VALID,917.614,VALID,0,VALID,76.1427,VALID,412.789,VALID,24.7711,VALID,53,VALID,2.14805,
2014-05-06, 08:35:04,VALID,917.634,VALID,0,VALID,75.5938,VALID,540.322,VALID,24.6345,VALID,77,VALID,2.34063,
2014-05-06, 08:36:04,VALID,917.589,VALID,0,VALID,76.2723,VALID,250.338,VALID,24.5368,VALID,72,VALID,1.76367,
2014-05-06, 08:37:04,VALID,917.58,VALID,0,VALID,78.1858,VALID,239.701,VALID,24.6149,VALID,60,VALID,1.71836,
2014-05-06, 08:38:04,VALID,917.563,VALID,0,VALID,76.4552,VALID,238.842,VALID,24.5387,VALID,66,VALID,2.42266,
2014-05-06, 08:39:04,VALID,917.608,VALID,0,VALID,78.2925,VALID,273.76,VALID,24.4392,VALID,69,VALID,1.81406,
2014-05-06, 08:40:04,VALID,917.607,VALID,0,VALID,78.384,VALID,394.739,VALID,24.4411,VALID,88,VALID,1.06797,
2014-05-06, 08:41:04,VALID,917.603,VALID,0,VALID,75.8454,VALID,444.484,VALID,24.4801,VALID,82,VALID,2.08086,
2014-05-06, 08:42:04,VALID,917.609,VALID,0,VALID,74.7552,VALID,417.839,VALID,24.5778,VALID,85,VALID,1.88984,
2014-05-06, 08:43:04,VALID,917.619,VALID,0,VALID,77.1566,VALID,248.726,VALID,24.6559,VALID,61,VALID,1.18125,
2014-05-06, 08:44:04,VALID,917.627,VALID,0,VALID,76.1122,VALID,236.693,VALID,24.734,VALID,143,VALID,1.17383,
2014-05-06, 08:45:04,VALID,917.655,VALID,0,VALID,75.8759,VALID,244.858,VALID,24.7144,VALID,104,VALID,1.32773,
2014-05-06, 08:46:04,VALID,917.646,VALID,0,VALID,77.9647,VALID,331.778,VALID,24.6949,VALID,72,VALID,1.45352,
2014-05-06, 08:47:04,VALID,917.685,VALID,0,VALID,79.0243,VALID,453.939,VALID,24.7144,VALID,55,VALID,1.63633,
2014-05-06, 08:48:04,VALID,917.683,VALID,0,VALID,74.9306,VALID,245.825,VALID,24.734,VALID,99,VALID,2.68047,
2014-05-06, 08:49:04,VALID,917.662,VALID,0,VALID,76.3409,VALID,238.09,VALID,24.6363,VALID,62,VALID,1.57617,
2014-05-06, 08:50:04,VALID,917.648,VALID,0,VALID,76.0283,VALID,233.04,VALID,24.5992,VALID,100,VALID,1.50664,
2014-05-06, 08:51:04,VALID,917.661,VALID,0,VALID,78.5898,VALID,223.048,VALID,24.5192,VALID,121,VALID,0.884766,
2014-05-06, 08:52:04,VALID,917.611,VALID,0,VALID,77.2328,VALID,220.684,VALID,24.5601,VALID,128,VALID,1.59336,
2014-05-06, 08:53:04,VALID,917.616,VALID,0,VALID,77.149,VALID,233.899,VALID,24.4216,VALID,96,VALID,1.66641,
2014-05-06, 08:54:04,VALID,917.581,VALID,0,VALID,78.7956,VALID,243.032,VALID,24.402,VALID,105,VALID,0.968359,
2014-05-06, 08:55:04,VALID,917.578,VALID,0,VALID,79.0167,VALID,236.693,VALID,24.482,VALID,98,VALID,1.01094,
2014-05-06, 08:56:04,VALID,917.529,VALID,0,VALID,77.6216,VALID,448.889,VALID,24.5387,VALID,77,VALID,1.49609,
2014-05-06, 08:57:04,VALID,917.546,VALID,0,VALID,79.5732,VALID,258.826,VALID,24.6168,VALID,61,VALID,0.702344,
2014-05-06, 08:58:04,VALID,917.487,VALID,0,VALID,75.9521,VALID,241.313,VALID,24.5973,VALID,115,VALID,2.12812,
2014-05-06, 08:59:04,VALID,917.485,VALID,0,VALID,75.8682,VALID,236.048,VALID,24.5778,VALID,106,VALID,2.64375,
2014-05-06, 09:00:04,VALID,917.456,VALID,0,VALID,76.0055,VALID,235.296,VALID,24.5582,VALID,71,VALID,2.37383,
2014-05-06, 09:01:04,VALID,917.44,VALID,0,VALID,75.5023,VALID,243.677,VALID,24.4997,VALID,121,VALID,2.61914,
2014-05-06, 09:02:04,VALID,917.426,VALID,0,VALID,78.384,VALID,310.827,VALID,24.4801,VALID,35,VALID,2.18125,
2014-05-06, 09:03:04,VALID,917.411,VALID,0,VALID,78.971,VALID,292.777,VALID,24.5973,VALID,67,VALID,1.64648,
2014-05-06, 09:04:04,VALID,917.435,VALID,0,VALID,76.9431,VALID,321.571,VALID,24.6168,VALID,83,VALID,2.50273,
2014-05-06, 09:05:04,VALID,917.408,VALID,0,VALID,75.5862,VALID,697.723,VALID,24.6363,VALID,67,VALID,3.63398,
2014-05-06, 09:06:04,VALID,917.441,VALID,0,VALID,77.4005,VALID,435.674,VALID,24.7358,VALID,49,VALID,1.65625,
2014-05-06, 09:07:04,VALID,917.406,VALID,0,VALID,73.6193,VALID,358.531,VALID,24.853,VALID,95,VALID,2.6082,
2014-05-06, 09:08:04,VALID,917.465,VALID,0,VALID,75.1821,VALID,505.618,VALID,24.8707,VALID,64,VALID,2.38125,
2014-05-06, 09:09:04,VALID,917.409,VALID,0,VALID,74.3207,VALID,527.643,VALID,24.9292,VALID,68,VALID,2.22617,
2014-05-06, 09:10:04,VALID,917.472,VALID,0,VALID,74.3969,VALID,525.602,VALID,24.9274,VALID,107,VALID,2.78086,
2014-05-06, 09:11:04,VALID,917.459,VALID,0,VALID,73.909,VALID,607.902,VALID,24.9859,VALID,57,VALID,3.41914,
2014-05-06, 09:12:04,VALID,917.48,VALID,0,VALID,75.6777,VALID,708.037,VALID,25.025,VALID,48,VALID,2.26445,
2014-05-06, 09:13:04,VALID,917.53,VALID,0,VALID,75.6395,VALID,369.275,VALID,25.2808,VALID,55,VALID,2.05977,
2014-05-06, 09:14:04,VALID,917.485,VALID,0,VALID,72.7655,VALID,321.679,VALID,25.3765,VALID,49,VALID,3.35586,
2014-05-06, 09:15:04,VALID,917.524,VALID,0,VALID,74.0386,VALID,295.785,VALID,25.2788,VALID,84,VALID,2.13555,
2014-05-06, 09:16:04,VALID,917.493,VALID,0,VALID,72.8494,VALID,269.14,VALID,25.1422,VALID,91,VALID,2.02383,
2014-05-06, 09:17:04,VALID,917.515,VALID,0,VALID,74.3893,VALID,252.272,VALID,25.0055,VALID,66,VALID,2.24922,
2014-05-06, 09:18:04,VALID,917.505,VALID,0,VALID,76.4781,VALID,264.842,VALID,24.8688,VALID,70,VALID,1.97148,
2014-05-06, 09:19:04,VALID,917.481,VALID,0,VALID,76.7525,VALID,280.207,VALID,24.7907,VALID,77,VALID,3.03437,
2014-05-06, 09:20:04,VALID,917.448,VALID,0,VALID,74.0844,VALID,304.703,VALID,24.7321,VALID,55,VALID,2.26914,
2014-05-06, 09:21:04,VALID,917.436,VALID,0,VALID,74.0462,VALID,310.397,VALID,24.7321,VALID,66,VALID,2.18867,
2014-05-06, 09:22:04,VALID,917.493,VALID,0,VALID,74.496,VALID,701.806,VALID,24.7126,VALID,76,VALID,2.25469,
2014-05-06, 09:23:04,VALID,917.461,VALID,0,VALID,76.4171,VALID,357.779,VALID,24.8121,VALID,85,VALID,2.53477,
2014-05-06, 09:24:04,VALID,917.454,VALID,0,VALID,76.6382,VALID,375.399,VALID,24.8492,VALID,104,VALID,2.52969,
2014-05-06, 09:25:04,VALID,917.445,VALID,0,VALID,77.2023,VALID,502.61,VALID,24.9683,VALID,90,VALID,1.69219,
2014-05-06, 09:26:04,VALID,917.443,VALID,0,VALID,76.2113,VALID,548.38,VALID,25.0836,VALID,50,VALID,2.85586,
2014-05-06, 09:27:04,VALID,917.416,VALID,0,VALID,72.2166,VALID,794.312,VALID,25.2398,VALID,83,VALID,2.70195,
2014-05-06, 09:28:04,VALID,917.455,VALID,0,VALID,74.435,VALID,794.957,VALID,25.3198,VALID,78,VALID,1.77773,
2014-05-06, 09:29:04,VALID,917.445,VALID,0,VALID,72.1175,VALID,551.388,VALID,25.4937,VALID,92,VALID,1.81602,
2014-05-06, 09:30:04,VALID,917.459,VALID,0,VALID,73.909,VALID,762.51,VALID,25.5327,VALID,95,VALID,2.47539,
2014-05-06, 09:31:04,VALID,917.461,VALID,0,VALID,72.9256,VALID,736.617,VALID,25.5913,VALID,113,VALID,2.91523,
2014-05-06, 09:32:04,VALID,917.468,VALID,0,VALID,72.796,VALID,650.341,VALID,25.6499,VALID,75,VALID,1.62734,
2014-05-06, 09:33:04,VALID,917.478,VALID,0,VALID,74.1453,VALID,360.035,VALID,25.6694,VALID,90,VALID,2.35039,
2014-05-06, 09:34:04,VALID,917.44,VALID,0,VALID,74.0767,VALID,346.713,VALID,25.6694,VALID,87,VALID,2.3168,
2014-05-06, 09:35:04,VALID,917.459,VALID,0,VALID,73.9929,VALID,664.846,VALID,25.6499,VALID,42,VALID,2.54219,
2014-05-06, 09:36:04,VALID,917.413,VALID,0,VALID,70.3565,VALID,232.718,VALID,25.687,VALID,28,VALID,2.98867,
2014-05-06, 09:37:04,VALID,917.488,VALID,0,VALID,72.735,VALID,555.578,VALID,25.6089,VALID,100,VALID,2.5418,
2014-05-06, 09:38:04,VALID,917.457,VALID,0,VALID,73.4364,VALID,279.669,VALID,25.5327,VALID,93,VALID,1.62539,
2014-05-06, 09:39:04,VALID,917.464,VALID,0,VALID,74.0386,VALID,725.443,VALID,25.396,VALID,54,VALID,2.17383,
2014-05-06, 09:40:04,VALID,917.437,VALID,0,VALID,72.3081,VALID,701.054,VALID,25.437,VALID,49,VALID,2.07891,
2014-05-06, 09:41:04,VALID,917.479,VALID,0,VALID,73.1924,VALID,696.756,VALID,25.6519,VALID,81,VALID,1.91719,
2014-05-06, 09:42:04,VALID,917.451,VALID,0,VALID,71.5305,VALID,693.855,VALID,25.73,VALID,66,VALID,2.59414,
2014-05-06, 09:43:04,VALID,917.423,VALID,0,VALID,70.8368,VALID,692.243,VALID,25.7671,VALID,52,VALID,2.98867,
2014-05-06, 09:44:04,VALID,917.481,VALID,0,VALID,70.4404,VALID,702.558,VALID,25.8062,VALID,59,VALID,3.70625,
2014-05-06, 09:45:04,VALID,917.462,VALID,0,VALID,72.392,VALID,707.178,VALID,25.8062,VALID,67,VALID,2.21914,
2014-05-06, 09:46:04,VALID,917.444,VALID,0,VALID,68.4278,VALID,691.169,VALID,25.8452,VALID,61,VALID,2.56641,
2014-05-06, 09:47:04,VALID,917.432,VALID,0,VALID,71.6677,VALID,688.59,VALID,25.8843,VALID,36,VALID,2.44102,
2014-05-06, 09:48:04,VALID,917.387,VALID,0,VALID,70.5166,VALID,693.425,VALID,25.982,VALID,47,VALID,3.74453,
2014-05-06, 09:49:04,VALID,917.417,VALID,0,VALID,71.0579,VALID,703.31,VALID,25.9429,VALID,39,VALID,2.32305,
2014-05-06, 09:50:04,VALID,917.39,VALID,0,VALID,68.6565,VALID,703.632,VALID,25.9624,VALID,114,VALID,2.42188,
2014-05-06, 09:51:04,VALID,917.409,VALID,0,VALID,69.1215,VALID,703.095,VALID,26.0015,VALID,73,VALID,2.98203,
2014-05-06, 09:52:04,VALID,917.451,VALID,0,VALID,71.3094,VALID,696.004,VALID,26.0425,VALID,40,VALID,1.70273,
2014-05-06, 09:53:04,VALID,917.418,VALID,0,VALID,67.1242,VALID,694.929,VALID,26.0621,VALID,73,VALID,2.90742,
2014-05-06, 09:54:04,VALID,917.421,VALID,0,VALID,69.6628,VALID,698.69,VALID,25.9839,VALID,52,VALID,3.35625,
2014-05-06, 09:55:04,VALID,917.434,VALID,0,VALID,68.3973,VALID,698.26,VALID,25.9644,VALID,79,VALID,2.67031,
2014-05-06, 09:56:04,VALID,917.438,VALID,0,VALID,70.8673,VALID,693.962,VALID,25.9253,VALID,73,VALID,2.5043,
2014-05-06, 09:57:04,VALID,917.477,VALID,0,VALID,67.4139,VALID,693.425,VALID,25.9058,VALID,66,VALID,2.80742,
2014-05-06, 09:58:04,VALID,917.487,VALID,0,VALID,68.4278,VALID,329.522,VALID,25.9038,VALID,93,VALID,1.06289,
2014-05-06, 09:59:04,VALID,917.473,VALID,0,VALID,69.4874,VALID,595.976,VALID,26.0425,VALID,14,VALID,1.10742,
2014-05-06, 10:00:04,VALID,917.498,VALID,0,VALID,70.6767,VALID,703.417,VALID,26.2164,VALID,20,VALID,0.822656,
2014-05-06, 10:01:04,VALID,917.494,VALID,0,VALID,70.5242,VALID,710.508,VALID,26.3726,VALID,39,VALID,2.2125,
2014-05-06, 10:02:04,VALID,917.485,VALID,0,VALID,67.9551,VALID,750.691,VALID,26.4312,VALID,28,VALID,2.80938,
2014-05-06, 10:03:04,VALID,917.492,VALID,0,VALID,67.147,VALID,780.99,VALID,26.5074,VALID,72,VALID,2.32148,
2014-05-06, 10:04:04,VALID,917.507,VALID,0,VALID,69.0453,VALID,547.842,VALID,26.3336,VALID,36,VALID,4.20508,
2014-05-06, 10:05:04,VALID,917.522,VALID,0,VALID,66.8802,VALID,239.809,VALID,26.2945,VALID,65,VALID,2.48359,
2014-05-06, 10:06:04,VALID,917.543,VALID,0,VALID,67.9399,VALID,321.034,VALID,26.0992,VALID,49,VALID,3.00859,
2014-05-06, 10:07:04,VALID,917.557,VALID,0,VALID,68.6184,VALID,403.227,VALID,25.9234,VALID,63,VALID,2.80039,
2014-05-06, 10:08:04,VALID,917.515,VALID,0,VALID,68.3287,VALID,827.404,VALID,25.8648,VALID,44,VALID,1.98125,
2014-05-06, 10:09:04,VALID,917.492,VALID,0,VALID,70.3336,VALID,806.453,VALID,25.9253,VALID,27,VALID,2.84336,
2014-05-06, 10:10:04,VALID,917.477,VALID,0,VALID,68.8394,VALID,789.692,VALID,26.1773,VALID,67,VALID,1.14648,
2014-05-06, 10:11:04,VALID,917.462,VALID,0,VALID,66.9031,VALID,771.857,VALID,26.4292,VALID,69,VALID,0.726563,
2014-05-06, 10:12:04,VALID,917.423,VALID,0,VALID,65.6224,VALID,233.147,VALID,26.5855,VALID,114,VALID,1.09258,
2014-05-06, 10:13:04,VALID,917.409,VALID,0,VALID,66.7049,VALID,248.726,VALID,26.6246,VALID,16,VALID,1.66406,
2014-05-06, 10:14:04,VALID,917.402,VALID,0,VALID,65.2259,VALID,275.157,VALID,26.5094,VALID,94,VALID,2.01328,
2014-05-06, 10:15:04,VALID,917.346,VALID,0,VALID,66.2322,VALID,312.654,VALID,26.2164,VALID,100,VALID,1.06719,
2014-05-06, 10:16:04,VALID,917.365,VALID,0,VALID,67.5511,VALID,352.3,VALID,26.1362,VALID,82,VALID,1.36445,
2014-05-06, 10:17:04,VALID,917.377,VALID,0,VALID,67.4749,VALID,888.216,VALID,26.1187,VALID,66,VALID,2.15391,
2014-05-06, 10:18:04,VALID,917.38,VALID,0,VALID,68.4202,VALID,902.291,VALID,26.1382,VALID,92,VALID,0.748828,
2014-05-06, 10:19:04,VALID,917.379,VALID,0,VALID,69.7695,VALID,523.776,VALID,26.4312,VALID,92,VALID,0.622266,
2014-05-06, 10:20:04,VALID,917.354,VALID,0,VALID,66.7125,VALID,608.439,VALID,26.7438,VALID,58,VALID,1.47969,
2014-05-06, 10:21:04,VALID,917.307,VALID,0,VALID,66.4914,VALID,874.786,VALID,26.9001,VALID,81,VALID,0.827734,
2014-05-06, 10:22:04,VALID,917.304,VALID,0,VALID,64.4484,VALID,871.133,VALID,27.0369,VALID,106,VALID,1.48125,
2014-05-06, 10:23:04,VALID,917.335,VALID,0,VALID,67.4367,VALID,868.017,VALID,27.0348,VALID,102,VALID,2.37422,
2014-05-06, 10:24:04,VALID,917.366,VALID,0,VALID,63.9071,VALID,335.109,VALID,26.9958,VALID,36,VALID,3.00352,
2014-05-06, 10:25:04,VALID,917.361,VALID,0,VALID,66.0264,VALID,374.97,VALID,26.8004,VALID,39,VALID,1.90937,
2014-05-06, 10:26:04,VALID,917.39,VALID,0,VALID,66.4305,VALID,942.796,VALID,26.7809,VALID,95,VALID,0.733594,
2014-05-06, 10:27:04,VALID,917.372,VALID,0,VALID,68.4202,VALID,900.035,VALID,26.8199,VALID,89,VALID,1.54414,
2014-05-06, 10:28:04,VALID,917.368,VALID,0,VALID,67.0098,VALID,456.088,VALID,26.7223,VALID,81,VALID,1.26797,
2014-05-06, 10:29:04,VALID,917.317,VALID,0,VALID,68.2143,VALID,828.156,VALID,26.9176,VALID,74,VALID,0.634375,
2014-05-06, 10:30:04,VALID,917.314,VALID,0,VALID,66.6058,VALID,799.04,VALID,27.0935,VALID,44,VALID,2.37383,
2014-05-06, 10:31:04,VALID,917.375,VALID,0,VALID,67.856,VALID,800.114,VALID,27.1911,VALID,103,VALID,0.894531,